Boscobel, WI

2:56 PM CST on February 20, 2017 (GMT -0600)
Boscobel

Weather History for KOVS - October, 2013

Change the Weather History Date:

Wednesday, October 23, 2013

  Actual Average (KPDC) Record (KPDC)
Temperature  
Mean Temperature 34 °F -  
Max Temperature 45 °F 61 °F 86 °F (1963)
Min Temperature 26 °F 42 °F 19 °F (1969)
Degree Days  
Heating Degree Days 30    
Moisture  
Dew Point 26 °F    
Average Humidity 69    
Maximum Humidity 92    
Minimum Humidity 40    
Precipitation  
Precipitation 0.00 in - - ()
Sea Level Pressure  
Sea Level Pressure 30.04 in    
Wind  
Wind Speed 4 mph (West)    
Max Wind Speed 12 mph    
Max Gust Speed 20 mph    
Visibility 10 miles    
Events Rain    
Averages and records for this station are not official NWS values.
T = Trace of Precipitation, MM = Missing Value Source: NWS Daily Summary

Daily Weather History Graph

Daily Weather History Graph

Search for Another Location

Airport or City:

Trip Planner

Search our weather history database for the weather conditions in past years. The results will help you decide how hot, cold, wet, or windy it might be!

Date:

Astronomy

Oct. 23, 2013 Rise Set
Actual Time 7:26 AM CDT 6:06 PM CDT
Civil Twilight 6:57 AM CDT 6:35 PM CDT
Nautical Twilight 6:24 AM CDT 7:09 PM CDT
Astronomical Twilight 5:51 AM CDT 7:41 PM CDT
Moon 9:34 PM CDT (10/23) 11:47 AM CDT (10/23)
Length of Visible Light 11h 38m
Length of Day
10h 40m
Waning Gibbous, 79% of the Moon is Illuminated
Oct 23
Waning Gibbous
Oct 26
Last Quarter
Nov 3
New
Nov 9
First Quarter
Nov 17
Full

Hourly Weather History & Observations

Time (CDT) Temp. Windchill Dew Point Humidity Pressure Visibility Wind Dir Wind Speed Gust Speed Precip Events Conditions
12:53 AM 26.1 °F - 24.1 °F 92% 30.03 in 10.0 mi Calm Calm - N/A   Clear
1:53 AM 28.0 °F 24.2 °F 25.0 °F 88% 30.03 in 10.0 mi SSW 3.5 mph - N/A   Overcast
2:53 AM 28.0 °F 24.2 °F 25.0 °F 88% 30.02 in 8.0 mi SW 3.5 mph - N/A   Clear
3:53 AM 27.0 °F 23.0 °F 24.1 °F 89% 30.02 in 10.0 mi SSW 3.5 mph - N/A   Mostly Cloudy
4:53 AM 27.0 °F 23.0 °F 24.1 °F 89% 30.02 in 10.0 mi SW 3.5 mph - N/A   Scattered Clouds
5:53 AM 27.0 °F 23.0 °F 24.1 °F 89% 30.03 in 10.0 mi SSW 3.5 mph - N/A   Overcast
6:53 AM 28.0 °F 24.2 °F 26.1 °F 92% 30.04 in 10.0 mi SSW 3.5 mph - N/A   Overcast
7:53 AM 30.0 °F - 27.0 °F 88% 30.05 in 10.0 mi Calm Calm - N/A   Overcast
8:53 AM 32.0 °F 27.5 °F 30.0 °F 92% 30.06 in 10.0 mi SW 4.6 mph - N/A   Overcast
9:09 AM 34.0 °F 31.0 °F 30.9 °F 89% 30.03 in 10.0 mi SSW 3.5 mph - N/A   Overcast
9:40 AM 36.0 °F 32.1 °F 32.0 °F 86% 30.03 in 10.0 mi SSW 4.6 mph - N/A   Overcast
9:53 AM 37.0 °F 33.3 °F 32.0 °F 82% 30.05 in 10.0 mi SW 4.6 mph - N/A   Mostly Cloudy
10:21 AM 37.9 °F 33.5 °F 30.9 °F 76% 30.03 in 10.0 mi West 5.8 mph - N/A   Mostly Cloudy
10:53 AM 39.9 °F - 30.9 °F 70% 30.06 in 10.0 mi Calm Calm - N/A   Overcast
11:37 AM 43.0 °F 38.2 °F 28.0 °F 56% 30.03 in 10.0 mi NW 8.1 mph - N/A   Scattered Clouds
11:53 AM 42.1 °F 37.7 °F 28.0 °F 58% 30.04 in 10.0 mi NW 6.9 mph - N/A   Mostly Cloudy
12:53 PM 43.0 °F 37.7 °F 21.9 °F 43% 30.04 in 10.0 mi NW 9.2 mph - 0.00 in   Overcast
1:53 PM 42.1 °F 37.7 °F 23.0 °F 47% 30.03 in 10.0 mi West 6.9 mph - 0.00 in   Overcast
2:53 PM 43.0 °F 37.2 °F 21.0 °F 42% 30.02 in 10.0 mi West 10.4 mph 19.6 mph N/A   Overcast
3:53 PM 43.0 °F 37.2 °F 19.9 °F 40% 30.03 in 10.0 mi WNW 10.4 mph 17.3 mph N/A   Overcast
4:53 PM 42.1 °F 37.7 °F 21.0 °F 43% 30.04 in 10.0 mi West 6.9 mph - N/A   Overcast
5:53 PM 41.0 °F 35.2 °F 23.0 °F 49% 30.04 in 10.0 mi WNW 9.2 mph - 0.00 in Rain Light Rain
6:53 PM 39.9 °F 32.9 °F 25.0 °F 55% 30.06 in 10.0 mi WNW 11.5 mph - 0.00 in   Overcast
7:53 PM 39.0 °F 36.8 °F 25.0 °F 57% 30.06 in 10.0 mi West 3.5 mph - N/A   Overcast
8:53 PM 39.0 °F 35.7 °F 26.1 °F 60% 30.06 in 10.0 mi Variable 4.6 mph - N/A   Overcast
9:53 PM 37.9 °F 33.5 °F 26.1 °F 62% 30.07 in 10.0 mi WNW 5.8 mph - 0.00 in   Overcast
10:53 PM 37.9 °F 33.5 °F 24.1 °F 57% 30.08 in 10.0 mi WNW 5.8 mph - N/A   Overcast
11:53 PM 37.0 °F 32.4 °F 24.1 °F 59% 30.08 in 10.0 mi NNW 5.8 mph - 0.00 in   Overcast